TimeMST,TemperatureF,Dew PointF,Humidity,Sea Level PressureIn,VisibilityMPH,Wind Direction,Wind SpeedMPH,Gust SpeedMPH,PrecipitationIn,Events,Conditions,WindDirDegrees,DateUTC
12:15 AM,23.0,1.4,39,-9999,10.0,SW,10.4,-,N/A,,Clear,230,2013-01-06 07:15:00
12:35 AM,23.0,-0.4,36,-9999,10.0,SW,10.4,-,N/A,,Clear,230,2013-01-06 07:35:00
12:55 AM,23.0,-2.2,33,-9999,10.0,SW,10.4,-,N/A,,Clear,230,2013-01-06 07:55:00
1:15 AM,24.8,-4.0,28,-9999,10.0,SW,11.5,-,N/A,,Clear,230,2013-01-06 08:15:00
1:35 AM,26.6,-4.0,26,-9999,10.0,WSW,15.0,-,N/A,,Clear,250,2013-01-06 08:35:00
1:55 AM,26.6,-4.0,26,-9999,10.0,WSW,13.8,-,N/A,,Clear,250,2013-01-06 08:55:00
2:15 AM,26.6,-4.0,26,-9999,10.0,WSW,12.7,-,N/A,,Clear,250,2013-01-06 09:15:00
2:35 AM,24.8,-4.0,28,-9999,10.0,WSW,9.2,-,N/A,,Clear,250,2013-01-06 09:35:00
2:55 AM,26.6,-5.8,24,-9999,10.0,WSW,8.1,-,N/A,,Clear,240,2013-01-06 09:55:00
3:15 AM,26.6,-5.8,24,-9999,10.0,SW,8.1,-,N/A,,Clear,230,2013-01-06 10:15:00
3:35 AM,26.6,-4.0,26,-9999,10.0,WSW,9.2,-,N/A,,Clear,240,2013-01-06 10:35:00
3:55 AM,26.6,-4.0,26,-9999,10.0,WSW,8.1,-,N/A,,Clear,240,2013-01-06 10:55:00
4:15 AM,26.6,-5.8,24,-9999,10.0,WSW,9.2,-,N/A,,Clear,240,2013-01-06 11:15:00
4:35 AM,26.6,-4.0,26,-9999,10.0,SW,9.2,-,N/A,,Clear,230,2013-01-06 11:35:00
4:55 AM,26.6,-4.0,26,-9999,10.0,WSW,10.4,-,N/A,,Clear,240,2013-01-06 11:55:00
5:15 AM,24.8,-4.0,28,-9999,10.0,WSW,10.4,-,N/A,,Clear,250,2013-01-06 12:15:00
5:35 AM,26.6,-4.0,26,-9999,10.0,WSW,10.4,-,N/A,,Clear,250,2013-01-06 12:35:00
5:55 AM,26.6,-4.0,26,-9999,10.0,WSW,11.5,-,N/A,,Clear,250,2013-01-06 12:55:00
6:15 AM,26.6,-4.0,26,-9999,10.0,WSW,9.2,-,N/A,,Clear,250,2013-01-06 13:15:00
6:35 AM,26.6,-4.0,26,-9999,10.0,WSW,8.1,-,N/A,,Clear,240,2013-01-06 13:35:00
6:55 AM,23.0,-2.2,33,-9999,10.0,WSW,9.2,-,N/A,,Clear,240,2013-01-06 13:55:00
7:15 AM,24.8,-0.4,34,-9999,10.0,WSW,10.4,-,N/A,,Clear,240,2013-01-06 14:15:00
7:35 AM,26.6,-4.0,26,-9999,10.0,WSW,13.8,-,N/A,,Clear,250,2013-01-06 14:35:00
7:55 AM,28.4,-2.2,27,-9999,10.0,WSW,15.0,-,N/A,,Clear,250,2013-01-06 14:55:00
8:35 AM,32.0,1.4,27,-9999,10.0,WSW,18.4,-,N/A,,Clear,250,2013-01-06 15:35:00
8:55 AM,32.0,-0.4,25,-9999,10.0,WSW,17.3,26.5,N/A,,Clear,250,2013-01-06 15:55:00
9:15 AM,32.0,-0.4,25,-9999,10.0,WSW,18.4,25.3,N/A,,Clear,250,2013-01-06 16:15:00
9:35 AM,32.0,-0.4,25,-9999,10.0,WSW,18.4,26.5,N/A,,Clear,250,2013-01-06 16:35:00
9:55 AM,32.0,-0.4,25,-9999,10.0,WSW,17.3,24.2,N/A,,Clear,250,2013-01-06 16:55:00
10:15 AM,32.0,-0.4,25,-9999,10.0,WSW,18.4,25.3,N/A,,Clear,250,2013-01-06 17:15:00
10:35 AM,32.0,1.4,27,-9999,10.0,WSW,19.6,24.2,N/A,,Clear,250,2013-01-06 17:35:00
10:55 AM,32.0,1.4,27,-9999,10.0,WSW,17.3,-,N/A,,Clear,250,2013-01-06 17:55:00
11:15 AM,32.0,1.4,27,-9999,10.0,WSW,16.1,20.7,N/A,,Clear,250,2013-01-06 18:15:00
11:35 AM,32.0,1.4,27,-9999,10.0,WSW,16.1,21.9,N/A,,Clear,250,2013-01-06 18:35:00
11:55 AM,32.0,3.2,30,-9999,10.0,WSW,12.7,19.6,N/A,,Clear,240,2013-01-06 18:55:00
12:15 PM,32.0,3.2,30,-9999,10.0,WSW,16.1,24.2,N/A,,Clear,240,2013-01-06 19:15:00
12:35 PM,32.0,3.2,30,-9999,10.0,WSW,17.3,25.3,N/A,,Clear,240,2013-01-06 19:35:00
12:55 PM,30.2,5.0,34,-9999,10.0,WSW,13.8,19.6,N/A,,Clear,240,2013-01-06 19:55:00
1:15 PM,32.0,8.6,38,-9999,10.0,SW,13.8,25.3,N/A,,Clear,230,2013-01-06 20:15:00
1:55 PM,32.0,5.0,32,-9999,10.0,WSW,17.3,27.6,N/A,,Clear,250,2013-01-06 20:55:00
2:15 PM,30.2,10.4,44,-9999,10.0,SW,13.8,24.2,N/A,,Clear,230,2013-01-06 21:15:00
2:35 PM,28.4,8.6,43,-9999,10.0,WSW,18.4,25.3,N/A,,Clear,250,2013-01-06 21:35:00
2:55 PM,28.4,6.8,40,-9999,10.0,WSW,16.1,-,N/A,,Clear,240,2013-01-06 21:55:00
3:15 PM,28.4,5.0,37,-9999,10.0,WSW,16.1,23.0,N/A,,Clear,250,2013-01-06 22:15:00
3:55 PM,28.4,5.0,37,-9999,10.0,WSW,16.1,-,N/A,,Scattered Clouds,250,2013-01-06 22:55:00
4:15 PM,28.4,5.0,37,-9999,10.0,WSW,16.1,21.9,N/A,,Mostly Cloudy,240,2013-01-06 23:15:00
4:35 PM,30.2,3.2,32,-9999,10.0,WSW,16.1,-,N/A,,Mostly Cloudy,250,2013-01-06 23:35:00
4:55 PM,30.2,3.2,32,-9999,10.0,West,18.4,-,N/A,,Scattered Clouds,260,2013-01-06 23:55:00
5:15 PM,32.0,10.4,41,-9999,10.0,WSW,17.3,26.5,N/A,,Scattered Clouds,250,2013-01-07 00:15:00
5:35 PM,32.0,10.4,41,-9999,10.0,WSW,16.1,21.9,N/A,,Mostly Cloudy,250,2013-01-07 00:35:00
5:55 PM,32.0,8.6,38,-9999,10.0,WSW,16.1,-,N/A,,Overcast,250,2013-01-07 00:55:00
6:35 PM,28.4,8.6,43,-9999,10.0,WSW,17.3,-,N/A,,Clear,250,2013-01-07 01:35:00
6:55 PM,28.4,5.0,37,-9999,10.0,WSW,19.6,26.5,N/A,,Clear,250,2013-01-07 01:55:00
7:15 PM,30.2,5.0,34,-9999,10.0,WSW,20.7,25.3,N/A,,Clear,250,2013-01-07 02:15:00
7:55 PM,30.2,3.2,32,-9999,10.0,WSW,20.7,27.6,N/A,,Clear,250,2013-01-07 02:55:00
8:35 PM,32.0,1.4,27,-9999,10.0,West,25.3,29.9,N/A,,Clear,260,2013-01-07 03:35:00
8:55 PM,30.2,1.4,29,-9999,10.0,WSW,24.2,33.4,N/A,,Clear,250,2013-01-07 03:55:00
9:15 PM,30.2,-0.4,27,-9999,10.0,WSW,23.0,35.7,N/A,,Clear,250,2013-01-07 04:15:00
9:35 PM,30.2,-2.2,25,-9999,10.0,WSW,23.0,32.2,N/A,,Clear,250,2013-01-07 04:35:00
9:55 PM,30.2,-2.2,25,-9999,10.0,WSW,25.3,32.2,N/A,,Clear,250,2013-01-07 04:55:00
10:35 PM,32.0,-4.0,21,-9999,10.0,West,18.4,32.2,N/A,,Clear,260,2013-01-07 05:35:00
10:55 PM,32.0,-4.0,21,-9999,10.0,West,12.7,21.9,N/A,,Clear,260,2013-01-07 05:55:00
11:35 PM,30.2,-0.4,27,-9999,10.0,NW,5.8,-,N/A,,Clear,320,2013-01-07 06:35:00
11:55 PM,30.2,-4.0,23,-9999,10.0,North,3.5,-,N/A,,Clear,10,2013-01-07 06:55:00